Meteo Giornale » Osservazioni meteo Iran » Orumieh
ore: 18:00 - Osservazioni Meteo Orumieh
Lat. 37° 32' N Lon. 45° 5' E Alt. 1297 metri s.l.m.
23 °C
Temporale nelle vicinanze
Temp. 24 Ore
13 °C
27 °C
Ovest/Nord-Ovest
11.1 Km/h
Dew point 11 °C
Umidità 46 %
Visibilità 10 Km
Il sole sorge alle ore 05:59
Il sole tramonta alle ore 18:59
| Data e Ora | Cielo e Fenomeni | T °C | DP °C | Um. % | Pres. hPa | Vis. km | Vento km/h | |
|---|---|---|---|---|---|---|---|---|
| Oggi h: 18:00 | Temporale nelle vicinanze | 23 | 11 | 46 | 1016 | 10 | O/NO 11.1 | |
| Oggi h: 17:30 | Temporale nelle vicinanze | 23 | 11 | 46 | 1016 | 10 | N/NO 14.8 | |
| Oggi h: 17:00 | Nuvoloso | 25 | 11 | 41 | 1016 | 10 | N 11.1 | |
| Oggi h: 16:30 | Nuvoloso | 26 | 10 | 36 | 1015 | 10 | N/NE 11.1 | |
| Oggi h: 16:00 | Poco Nuvoloso | 27 | 10 | 34 | 1014 | 10 | E 7.4 | |
| Oggi h: 15:30 | Poco Nuvoloso | 27 | 11 | 36 | 1014 | 10 | N/NE 7.4 | |
| Oggi h: 15:00 | Poco Nuvoloso | 27 | 12 | 39 | 1015 | 10 | E 7.4 | |
| Oggi h: 14:30 | Poco Nuvoloso | 27 | 12 | 39 | 1015 | 10 | E/NE 11.1 | |
| Oggi h: 14:00 | Poco Nuvoloso | 26 | 11 | 39 | 1016 | 10 | E 7.4 | |
| Oggi h: 13:30 | Poco Nuvoloso | 26 | 12 | 41 | 1016 | 10 | N/NE 11.1 | |
| Oggi h: 13:00 | Poco Nuvoloso | 26 | 12 | 41 | 1016 | 10 | E 11.1 | |
| Oggi h: 12:30 | Poco Nuvoloso | 25 | 11 | 41 | 1016 | 10 | E/NE 11.1 | |
| Oggi h: 12:00 | Poco Nuvoloso | 25 | 12 | 44 | 1017 | 10 | NE 11.1 | |
| Oggi h: 11:30 | Poco Nuvoloso | 25 | 12 | 44 | 1017 | 10 | E 11.1 | |
| Oggi h: 10:30 | Poco Nuvoloso | 23 | 10 | 43 | 1018 | 10 | E/NE 11.1 | |
| Oggi h: 09:30 | Nuvoloso | 22 | 11 | 49 | 1017 | 10 | NE 11.1 | |
| Oggi h: 08:30 | Nuvoloso | 20 | 11 | 56 | 1017 | 10 | N/NE 7.4 | |
| Oggi h: 08:00 | Nuvoloso | 18 | 11 | 63 | 1017 | 10 | O 7.4 | |
| Oggi h: 07:30 | Nuvoloso | 16 | 11 | 72 | 1017 | 10 | O/NO 7.4 | |
| Oggi h: 07:00 | Nuvoloso | 14 | 11 | 82 | 1017 | 10 | O 7.4 | |
| Oggi h: 06:30 | Poco Nuvoloso | 13 | 10 | 81 | 1016 | 10 | O 7.4 | |
| Oggi h: 06:00 | Poco Nuvoloso | 14 | 10 | 76 | 1016 | 10 | O 11.1 | |
| Oggi h: 05:30 | Poco Nuvoloso | 16 | 11 | 72 | 1016 | 10 | N 3.7 | |
| Oggi h: 04:30 | Poco Nuvoloso | 17 | 11 | 67 | 1016 | 10 | N 7.4 | |
| Oggi h: 03:30 | Sereno | 18 | 11 | 63 | 1016 | 10 | NO 14.8 | |
| Oggi h: 02:30 | Poco Nuvoloso | 18 | 11 | 63 | 1016 | 10 | NO 14.8 | |
| Oggi h: 01:30 | Poco Nuvoloso | 18 | 11 | 63 | 1015 | 10 | N/NO 14.8 | |
| Oggi h: 00:30 | Poco Nuvoloso | 19 | 11 | 59 | 1015 | 10 | N 11.1 | |
| Ieri h: 23:30 | Poco Nuvoloso | 18 | 11 | 63 | 1015 | 10 | NO 18.5 | |
| Ieri h: 23:00 | Poco Nuvoloso | 18 | 10 | 59 | 1015 | 10 | NO 18.5 | |
| Ieri h: 22:30 | Nuvoloso | 17 | 10 | 63 | 1014 | 10 | O 11.1 | |
| Ieri h: 22:00 | Nuvoloso | 18 | 10 | 59 | 1014 | 10 | O 14.8 | |
| Ieri h: 21:30 | Poco Nuvoloso | 18 | 12 | 67 | 1014 | 10 | O/SO 7.4 | |
| Ieri h: 21:00 | Poco Nuvoloso | 18 | 12 | 67 | 1014 | 8 | O 7.4 | |
| Ieri h: 20:30 | Poco Nuvoloso | 18 | 13 | 72 | 1014 | 8 | N 0 | |
| Ieri h: 20:00 | Poco Nuvoloso | 18 | 11 | 63 | 1013 | 8 | N 0 | |
| Ieri h: 19:30 | Poco Nuvoloso | 19 | 11 | 59 | 1013 | 10 | N 3.7 | |



